Miscellaneous Local Product
Issued by NWS Hastings, NE

Home | Current Version | Previous Version | Graphics & Text | Print | Product List | Glossary On
Versions: 1 2 3 4 5 6 7 8 9 10 11 12 13 14 15 16 17 18 19 20 21 22 23 24 25 26 27 28 29 30 31 32 33 34 35 36 37 38 39 40 41 42 43 44 45 46 47 48 49 50
836
AXUS43 KGID 120102
MISGRI

GID CWA HOURLY WEATHER ROUNDUP
NATIONAL WEATHER SERVICE HASTINGS NE
700 PM CST THU FEB 11 2016

NOTE: "FAIR" INDICATES FEW OR NO CLOUDS BELOW 12,000 FEET WITH NO
SIGNIFICANT WEATHER AND/OR OBSTRUCTIONS TO VISIBILITY.

...SOUTH CENTRAL NEBRASKA...

CITY           SKY/WX    TMP DP  RH WIND       PRES   REMARKS
GRAND ISLAND   CLEAR     29  26  89 S7        30.11R WCI  22
HASTINGS       PTCLDY    31  27  85 SW6       30.11R WCI  25
KEARNEY        PTCLDY    34  30  86 SW12      30.11R WCI  25
ORD            MOCLDY    31  28  89 SW3       30.07R
YORK           PTCLDY    28  27  93 S9        30.13S WCI  20
AURORA         MOCLDY    30  27  91 S7        30.11R WCI  23
LEXINGTON      CLEAR     35  31  83 SW3       30.11R
HOLDREGE       CLEAR     34  31  88 SW5       30.10R WCI  30
HEBRON         CLOUDY    30  27  88 S5        30.15F WCI  25

...NEBRASKA PANHANDLE...

CITY           SKY/WX    TMP DP  RH WIND       PRES   REMARKS
CHADRON        CLEAR     43  26  51 NW8       30.15R
ALLIANCE       CLOUDY    42  28  57 NW12      30.15R
SCOTTSBLUFF    CLEAR     42  27  55 N5        30.18R
SIDNEY         CLOUDY    41  29  62 NW10      30.19R

...WESTERN AND NORTH CENTRAL NEBRASKA...

CITY           SKY/WX    TMP DP  RH WIND       PRES   REMARKS
VALENTINE      PTCLDY    34  29  82 N6        30.12R WCI  29
AINSWORTH      CLEAR     36  30  80 N17G24    30.09R WCI  26
ONEILL         CLOUDY    30  29  96 NE10      30.10R FOG     WCI  21
BROKEN BOW     CLEAR     39  31  72 CALM      30.07R
IMPERIAL       CLOUDY    45  32  60 W9        30.14R
NORTH PLATTE   PTCLDY    38  29  70 CALM      30.09R
MCCOOK         CLOUDY    44  32  62 SW8       30.11R

...EASTERN NEBRASKA...

CITY           SKY/WX    TMP DP  RH WIND       PRES   REMARKS
NORFOLK        LGT SNOW  26  22  84 E8        30.14R FOG     WCI  18
SO SIOUX CITY  LGT SNOW  20  15  81 E8        30.21S WCI  10
TEKAMAH        LGT SNOW  21  17  84 E7        30.21S FOG     WCI  12
COLUMBUS       CLOUDY    28  18  64 SE7       30.14S WCI  21
ALBION         CLOUDY    30  27  88 S7        30.09R WCI  23
OMAHA EPPLEY   CLOUDY    26  20  77 N5        30.20R WCI  20
OFFUTT AFB     CLOUDY    30  22  69 S1        30.20R
MILLARD        CLOUDY    31  22  70 CALM      30.19R
LINCOLN        CLOUDY    29  24  82 S5        30.19R WCI  24
NEBRASKA CITY  CLOUDY    29  23  78 W7        30.19R WCI  22
BEATRICE       CLOUDY    29  25  83 CALM      30.17S
FALLS CITY     CLOUDY    33  22  63 SE6       30.18S WCI  28

...NORTHERN KANSAS...

CITY           SKY/WX    TMP DP  RH WIND       PRES   REMARKS
GOODLAND       CLOUDY    38  29  70 NW7       30.17R WCI  33
HILL CITY      CLOUDY    35  30  82 CALM      30.13R
NORTON         CLEAR     37  30  75 SW5       30.11  WCI  34
PHILLIPSBURG   CLEAR     37  32  81 CALM      30.14R
SMITH CENTER   CLEAR     30  27  86 CALM      30.13S
BELOIT         CLEAR     27  25  93 N6        30.16R WCI  20
HAYS           CLOUDY    41  27  56 NE12      30.13R
RUSSELL        CLEAR     35  29  78 NE8       30.13R WCI  29
CONCORDIA      PTCLDY    31  25  78 CALM      30.16R
SALINA         PTCLDY    36  25  64 CALM      30.18R
TOPEKA         PTCLDY    39  22  50 S3        30.19R



USA.gov is the U.S. government's official web portal to all federal, state and local government web resources and services.